This is the latest recevied weather packets stored in our database for station/object KB4RFE. If no packets are shown the sender has not sent any weather packets the latest 10 day(s).
| Time | Temp. | Humidity | Pressure | Rain* | Wind** | Luminosity | Snow |
|---|---|---|---|---|---|---|---|
| 1778018763 | 22.78° C | 61% | 1019.6 hPa | 0 mm | - | 84 W/m² | - |
| 1778018460 | 22.78° C | 63% | 1019.7 hPa | 0 mm | - | 79 W/m² | - |
| 1778018158 | 22.78° C | 61% | 1019.6 hPa | 0 mm | - | 134 W/m² | - |
| 1778017856 | 22.78° C | 60% | 1019.7 hPa | 0 mm | - | 103 W/m² | - |
| 1778017554 | 23.33° C | 58% | 1019.8 hPa | 0 mm | - | 116 W/m² | - |
| 1778017250 | 23.33° C | 59% | 1019.8 hPa | 0 mm | - | 149 W/m² | - |
| 1778016948 | 23.33° C | 60% | 1020.1 hPa | 0 mm | - | 386 W/m² | - |
| 1778016644 | 23.33° C | 61% | 1019.8 hPa | 0 mm | - | 389 W/m² | - |
| 1778016341 | 23.33° C | 62% | 1019.7 hPa | 0 mm | - | 423 W/m² | - |
| 1778016038 | 23.33° C | 61% | 1019.7 hPa | 0 mm | - | 455 W/m² | - |
| 1778015735 | 23.89° C | 58% | 1019.6 hPa | 0 mm | - | 476 W/m² | - |
| 1778015431 | 23.89° C | 61% | 1019.7 hPa | 0 mm | - | 493 W/m² | - |
| 1778015128 | 23.89° C | 58% | 1019.7 hPa | 0 mm | - | 513 W/m² | - |
| 1778014820 | 23.89° C | 57% | 1019.7 hPa | 0 mm | - | 553 W/m² | - |
| 1778014518 | 23.89° C | 57% | 1019.6 hPa | 0 mm | - | 554 W/m² | - |
| 1778014214 | 24.44° C | 59% | 1019.5 hPa | 0 mm | - | 575 W/m² | - |
| 1778013913 | 24.44° C | 60% | 1019.6 hPa | 0 mm | - | 582 W/m² | - |
| 1778013609 | 23.89° C | 60% | 1019.7 hPa | 0 mm | - | 623 W/m² | - |
| 1778013305 | 23.89° C | 58% | 1019.6 hPa | 0 mm | - | 661 W/m² | - |
| 1778013002 | 23.89° C | 58% | 1019.7 hPa | 0 mm | - | 598 W/m² | - |
| 1778012699 | 24.44° C | 60% | 1019.8 hPa | 0 mm | - | 653 W/m² | - |
| 1778012395 | 24.44° C | 61% | 1019.5 hPa | 0 mm | - | 657 W/m² | - |
| 1778012092 | 24.44° C | 57% | 1019.8 hPa | 0 mm | - | 657 W/m² | - |
| 1778011790 | 23.89° C | 59% | 1019.8 hPa | 0 mm | - | 700 W/m² | - |
| 1778011488 | 24.44° C | 56% | 1020.1 hPa | 0 mm | - | 460 W/m² | - |
* Rain latest hour (hover to see other rain measurements)
** Current wind speed in m/s (hover to see current wind gust speed)